sat.trackr.live / text

‹ back to catalog

COSMOS 2590

NORAD 64527 · 2025-131D

PAYLOAD ACTIVE UNKNOWN

§ Identity

Operator
Country
CIS
Launch date
2025-06-19
Launch site
PLMSC
Launch vehicle
Mass (kg)
RCS (m²)

External: N2YO · Heavens-Above · Gunter

§ Orbital elements

Epoch: 2026-09-19T20:33:36.427104Z

Period
1,436.93 min
Inclination
0.8298°
Eccentricity
0.3639758
Mean motion
1.00213713 rev/d
Perigee alt
20,450.0 km
Apogee alt
51,155.8 km
Semi-major
42,181.0 km
B*
0.0000e+0
RAAN
82.6424°
Arg perigee
20.1422°
Mean anomaly
287.0647°
Rev number
455

§ Raw data

COSMOS 25901 64527U 25131D   26262.85667161 -.00000172  00000+0  00000+0 0  99932 64527   0.8298  82.6424 3639758  20.1422 287.0647  1.00213713  4557

JSON: /api/v1/satellites/64527 · /tle

For live sub-satellite position, see the globe view (requires WebGL).

§ Visibility from observer

Set your observer location to see the next 7 days of passes ≥ 10°. The values pass through the URL so the page stays shareable.

No JS? Fill the form by hand. The geolocation button needs JavaScript.